| time (UTC) | temp F | wind direction | speed knots | gust knots | rain 1hr in | rain 24hr in | rain mn in | humidity % | barometer mb |
| 20260902194501 | 76 | 295 | 0.9 | 7.8 | 0.00 | 0.00 | 0.00 | 50 | 1016.6 |
| 20260902193002 | 75 | 350 | 0.9 | 7.0 | 0.00 | 0.00 | 0.00 | 51 | 1016.7 |
| 20260902191601 | 76 | 4 | 1.7 | 6.1 | 0.00 | 0.00 | 0.00 | 52 | 1016.9 |
| 20260902184604 | 75 | 314 | 0.0 | 7.8 | 0.00 | 0.00 | 0.00 | 54 | 1017.0 |
| 20260902183102 | 74 | 268 | 0.0 | 5.2 | 0.00 | 0.00 | 0.00 | 54 | 1017.0 |
| 20260902181602 | 75 | 180 | 0.9 | 6.1 | 0.00 | 0.00 | 0.00 | 53 | 1017.0 |
| 20260902180130 | 75 | 340 | 0.0 | 4.3 | 0.00 | 0.00 | 0.00 | 53 | 1017.0 |
| 20260902174601 | 74 | 287 | 0.0 | 2.6 | 0.00 | 0.00 | 0.00 | 57 | 1016.9 |
| 20260902173101 | 73 | 281 | 0.9 | 3.5 | 0.00 | 0.00 | 0.00 | 58 | 1017.0 |
| 20260902171600 | 71 | 219 | 0.0 | 3.5 | 0.00 | 0.00 | 0.00 | 60 | 1017.0 |
| 20260902170005 | 72 | 260 | 0.0 | 3.5 | 0.00 | 0.00 | 0.00 | 61 | 1016.9 |
| 20260902164615 | 70 | 200 | 0.0 | 3.5 | 0.00 | 0.00 | 0.00 | 62 | 1016.7 |
| 20260902163115 | 69 | 296 | 0.0 | 3.5 | 0.00 | 0.00 | 0.00 | 65 | 1016.6 |
| 20260902161615 | 67 | 265 | 0.0 | 0.9 | 0.00 | 0.00 | 0.00 | 69 | 1016.8 |
| 20260902160115 | 66 | 80 | 0.0 | 1.7 | 0.00 | 0.00 | 0.00 | 72 | 1016.8 |
| 20260902154615 | 65 | 209 | 0.0 | 2.6 | 0.00 | 0.00 | 0.00 | 72 | 1016.8 |
| 20260902153115 | 64 | 207 | 0.0 | 2.6 | 0.00 | 0.00 | 0.00 | 74 | 1016.7 |
| 20260902151615 | 61 | 212 | 0.0 | 2.6 | 0.00 | 0.00 | 0.00 | 76 | 1016.6 |
| 20260902150015 | 60 | 165 | 0.0 | 1.7 | 0.00 | 0.00 | 0.00 | 77 | 1016.5 |
| 20260902144527 | 60 | 203 | 0.0 | 3.5 | 0.00 | 0.00 | 0.00 | 78 | 1016.4 |
| 20260902143018 | 59 | 173 | 0.0 | 1.7 | 0.00 | 0.00 | 0.00 | 80 | 1016.3 |
| 20260902141522 | 58 | 166 | 0.0 | 1.7 | 0.00 | 0.00 | 0.00 | 81 | 1016.4 |
| 20260902140018 | 57 | 188 | 0.0 | 1.7 | 0.00 | 0.00 | 0.00 | 82 | 1016.4 |
| 20260902134530 | 57 | 189 | 0.0 | 1.7 | 0.00 | 0.00 | 0.00 | 81 | 1016.3 |
| 20260902133023 | 57 | 209 | 0.0 | 0.9 | 0.00 | 0.00 | 0.00 | 82 | 1016.0 |
| 20260902131530 | 57 | 176 | 0.0 | 1.7 | 0.00 | 0.00 | 0.00 | 82 | 1015.8 |
| 20260902130144 | 57 | 174 | 0.0 | 1.7 | 0.00 | 0.00 | 0.00 | 82 | 1015.8 |
| 20260902124545 | 57 | 265 | 0.0 | 1.7 | 0.00 | 0.00 | 0.00 | 82 | 1015.7 |
| 20260902123053 | 57 | 205 | 0.0 | 1.7 | 0.00 | 0.00 | 0.00 | 82 | 1015.8 |
| 20260902121548 | 57 | 173 | 0.0 | 1.7 | 0.00 | 0.00 | 0.00 | 81 | 1015.7 |
| 20260902120046 | 57 | 173 | 0.0 | 0.0 | 0.00 | 0.00 | 0.00 | 82 | 1015.7 |
| 20260902114545 | 57 | 174 | 0.0 | 0.9 | 0.00 | 0.00 | 0.00 | 82 | 1015.7 |
| 20260902113047 | 57 | 178 | 0.0 | 1.7 | 0.00 | 0.00 | 0.00 | 81 | 1015.7 |
| 20260902111549 | 57 | 186 | 0.0 | 0.9 | 0.00 | 0.00 | 0.00 | 81 | 1015.6 |
| 20260902110047 | 57 | 207 | 0.0 | 2.6 | 0.00 | 0.00 | 0.00 | 81 | 1015.7 |
| 20260902104552 | 57 | 218 | 0.0 | 0.0 | 0.00 | 0.00 | 0.00 | 81 | 1015.8 |
| 20260902103044 | 58 | 218 | 0.0 | 0.0 | 0.00 | 0.00 | 0.00 | 81 | 1015.9 |
| 20260902101544 | 58 | 218 | 0.0 | 0.9 | 0.00 | 0.00 | 0.00 | 80 | 1016.0 |
| 20260902094544 | 58 | 220 | 0.0 | 0.9 | 0.00 | 0.00 | 0.00 | 80 | 1016.1 |
| 20260902093047 | 58 | 219 | 0.0 | 3.5 | 0.00 | 0.00 | 0.00 | 79 | 1016.1 |
| 20260902091559 | 58 | 245 | 0.0 | 1.7 | 0.00 | 0.00 | 0.00 | 80 | 1016.0 |
| 20260902090059 | 58 | 211 | 0.0 | 1.7 | 0.00 | 0.00 | 0.00 | 80 | 1015.9 |
| 20260902084610 | 59 | 262 | 0.0 | 3.5 | 0.00 | 0.00 | 0.00 | 80 | 1016.0 |
| 20260902083113 | 59 | 217 | 0.9 | 2.6 | 0.00 | 0.00 | 0.00 | 80 | 1016.0 |
| 20260902081513 | 59 | 247 | 0.9 | 4.3 | 0.00 | 0.00 | 0.00 | 81 | 1015.9 |
| 20260902080013 | 59 | 216 | 0.0 | 2.6 | 0.00 | 0.00 | 0.00 | 80 | 1015.8 |
| 20260902074513 | 59 | 233 | 0.9 | 2.6 | 0.00 | 0.00 | 0.00 | 80 | 1015.8 |
| 20260902073013 | 59 | 233 | 0.9 | 2.6 | 0.00 | 0.00 | 0.00 | 79 | 1015.8 |
| 20260902071528 | 60 | 274 | 0.9 | 3.5 | 0.00 | 0.00 | 0.00 | 79 | 1015.7 |
| 20260902070028 | 60 | 201 | 0.9 | 4.3 | 0.00 | 0.00 | 0.00 | 79 | 1015.8 |
| 20260902064530 | 60 | 216 | 0.9 | 3.5 | 0.00 | 0.00 | 0.00 | 80 | 1015.7 |
| 20260902063028 | 60 | 217 | 0.0 | 3.5 | 0.00 | 0.00 | 0.00 | 79 | 1015.9 |
| 20260902061539 | 60 | 205 | 0.0 | 1.7 | 0.00 | 0.00 | 0.00 | 79 | 1015.9 |
| 20260902060043 | 60 | 229 | 0.0 | 1.7 | 0.00 | 0.00 | 0.00 | 79 | 1015.9 |
| 20260902054549 | 61 | 250 | 0.0 | 1.7 | 0.00 | 0.00 | 0.00 | 78 | 1016.0 |
| 20260902053042 | 61 | 269 | 0.0 | 4.3 | 0.00 | 0.00 | 0.00 | 76 | 1015.8 |
| 20260902051535 | 62 | 255 | 0.0 | 4.3 | 0.00 | 0.00 | 0.00 | 73 | 1015.8 |
| 20260902050035 | 63 | 5 | 0.0 | 4.3 | 0.00 | 0.00 | 0.00 | 72 | 1015.8 |
| 20260902044552 | 63 | 342 | 1.7 | 9.6 | 0.00 | 0.00 | 0.00 | 70 | 1015.6 |
| 20260902043051 | 64 | 333 | 1.7 | 6.1 | 0.00 | 0.00 | 0.00 | 68 | 1015.5 |
| 20260902041550 | 64 | 326 | 1.7 | 10.4 | 0.00 | 0.00 | 0.00 | 66 | 1015.4 |
| 20260902040050 | 65 | 319 | 2.6 | 10.4 | 0.00 | 0.00 | 0.00 | 64 | 1015.1 |
| 20260902034551 | 66 | 311 | 1.7 | 8.7 | 0.00 | 0.00 | 0.00 | 63 | 1014.8 |
| 20260902033050 | 66 | 329 | 1.7 | 7.0 | 0.00 | 0.00 | 0.00 | 62 | 1014.6 |
| 20260902031549 | 66 | 319 | 2.6 | 8.7 | 0.00 | 0.00 | 0.00 | 61 | 1014.3 |
| 20260902030050 | 67 | 359 | 4.3 | 8.7 | 0.00 | 0.00 | 0.00 | 59 | 1014.1 |
| 20260902024550 | 68 | 349 | 3.5 | 9.6 | 0.00 | 0.00 | 0.00 | 57 | 1014.0 |
| 20260902023053 | 68 | 323 | 2.6 | 10.4 | 0.00 | 0.00 | 0.00 | 55 | 1013.8 |
| 20260902021549 | 69 | 345 | 1.7 | 7.0 | 0.00 | 0.00 | 0.00 | 54 | 1013.7 |
| 20260902020049 | 70 | 37 | 1.7 | 9.6 | 0.00 | 0.00 | 0.00 | 51 | 1013.5 |
| 20260902014550 | 72 | 8 | 0.9 | 11.3 | 0.00 | 0.00 | 0.00 | 47 | 1013.4 |
| 20260902013049 | 74 | 308 | 0.9 | 9.6 | 0.00 | 0.00 | 0.00 | 45 | 1013.3 |
| 20260902011553 | 75 | 341 | 1.7 | 8.7 | 0.00 | 0.00 | 0.00 | 43 | 1013.3 |
| 20260902004549 | 76 | 305 | 0.9 | 7.8 | 0.00 | 0.00 | 0.00 | 41 | 1013.1 |
| 20260902003048 | 77 | 311 | 1.7 | 7.8 | 0.00 | 0.00 | 0.00 | 40 | 1013.3 |
| 20260902001548 | 77 | 279 | 0.0 | 7.8 | 0.00 | 0.00 | 0.00 | 40 | 1013.2 |
| 20260902000051 | 77 | 310 | 1.7 | 6.1 | 0.00 | 0.00 | 0.00 | 39 | 1013.3 |
| 20260901234549 | 77 | 353 | 1.7 | 7.0 | 0.00 | 0.00 | 0.00 | 39 | 1013.3 |
| 20260901233100 | 78 | 345 | 0.9 | 6.1 | 0.00 | 0.00 | 0.00 | 38 | 1013.4 |
| 20260901231603 | 77 | 25 | 0.0 | 8.7 | 0.00 | 0.00 | 0.00 | 40 | 1013.5 |
| 20260901230104 | 77 | 311 | 0.9 | 9.6 | 0.00 | 0.00 | 0.00 | 40 | 1013.6 |
| 20260901224616 | 78 | 290 | 0.9 | 8.7 | 0.00 | 0.00 | 0.00 | 39 | 1013.8 |
| 20260901223103 | 77 | 299 | 0.9 | 8.7 | 0.00 | 0.00 | 0.00 | 40 | 1013.8 |
| 20260901221604 | 78 | 328 | 0.0 | 7.8 | 0.00 | 0.00 | 0.00 | 40 | 1014.1 |
| 20260901220004 | 77 | 298 | 1.7 | 6.1 | 0.00 | 0.00 | 0.00 | 40 | 1014.1 |
| 20260901214506 | 77 | 227 | 2.6 | 8.7 | 0.00 | 0.00 | 0.00 | 41 | 1014.3 |
| 20260901213002 | 76 | 321 | 0.0 | 7.0 | 0.00 | 0.00 | 0.00 | 44 | 1014.2 |
| 20260901211519 | 76 | 217 | 0.0 | 8.7 | 0.00 | 0.00 | 0.00 | 44 | 1014.3 |
| 20260901210017 | 76 | 263 | 1.7 | 10.4 | 0.00 | 0.00 | 0.00 | 44 | 1014.5 |
| 20260901204517 | 74 | 314 | 0.9 | 7.8 | 0.00 | 0.00 | 0.00 | 47 | 1014.6 |
| 20260901203017 | 74 | 337 | 0.0 | 6.1 | 0.00 | 0.00 | 0.00 | 48 | 1014.7 |
| 20260901201517 | 75 | 345 | 0.0 | 7.8 | 0.00 | 0.00 | 0.00 | 47 | 1014.8 |
| 20260901200018 | 74 | 352 | 0.9 | 6.1 | 0.00 | 0.00 | 0.00 | 48 | 1014.9 |